User: anonymous   Login
Location: Alexandria
(38.8050°N, 77.0470°W)
Time: 18:14:40
(UTC-05:00)
Language:

KAITUO 1B - Orbit

View from above orbital plane
View from above orbital plane
View from above satellite
View from above satellite

Ground track
Ground track

The orbit data is extracted from the following two-line orbital elements,

1 40912U 15049P   18316.76683150  .00001094  00000-0  55316-4 0  9998
2 40912  97.4521 322.0349 0013942 208.3546 201.3484 15.19103578174224
Epoch (UTC): 12 November 2018 18:24:14
Eccentricity: 0.0013942
inclination: 97.4521°
perigee height: 499 km
apogee height: 518 km
right ascension of ascending node: 322.0349°
argument of perigee: 208.3546°
revolutions per day: 15.19103578
mean anomaly at epoch: 201.3484°
orbit number at epoch: 17422

The dashed part of the orbit path shows where the satellite is in the earth's shadow,  

DLR